Powrót do katalogu

STARLINK-31561

AktywnyŁącznośćVLEO
NORAD 59352·PAYLOAD·🇺🇸 United States

Wystrzelony Mar 31, 2024 z Cape Canaveral Space Force Station

Loading…

Następne Przeloty (najbliższe 24 godziny)

TLE

ŚwieżeSource: CelesTrak SupGP

Epoka: Sep 15, 2026, 02:37 UTC

1 59352C 24060E   26258.10951389 -.00015221  00000+0 -55133-3 0  2585
2 59352  43.0027 269.6974 0001359 266.5127 214.4097 15.27584787    14

Śledź STARLINK-31561 w czasie rzeczywistym z AllMySat

Download on the App Store